[[{"header":{"parameterUnit":"m.s-1","parameterCategory":1,"la1":30.2991,"la2":30.254,"lo1":-89.0895,"lo2":-89.0444,"dy":0.0017,"dx":0.0017,"nx":28,"ny":28,"refTime":"2025-07-26T03:00:00:Z","depth":0,"parameterNumber":2,"parameterNumberName":"U-component_of_WINDS"},"data":[0,0,0,0,0,0,0,0,0,0,0,0,0,0,0,0,0,0,0,0,0,0,0,0,0,0,0,0,0,0,0,0,0,0,0,0,0,0,0,0,0,0,0,0,0,0,0,0,0,0,0,0,0,0,0,0,0,0,1.2887,1.2889,0,1.3045,1.3047,1.3049,1.3097,1.3096,1.3095,1.3095,1.3259,1.3264,1.3269,0,0,0,0,0,0,0,0,0,0,0,0,0,1.2627,1.2631,1.2887,1.2889,1.2891,1.3045,1.3047,1.3049,1.3097,1.3096,1.3095,1.3094,1.3257,1.3263,1.3269,0,0,0,0,0,0,0,0,0,0,0,0,0,1.2758,1.2633,1.2886,1.2933,1.2939,1.3044,1.3047,1.305,1.3097,1.3096,1.3095,1.3094,1.3255,1.3262,1.327,1.3341,0,0,1.3293,1.3297,0,0,0,0,0,0,0,0,1.275,1.2767,1.2924,1.293,1.2937,1.305,1.3015,1.3147,1.3098,1.3037,1.3095,1.3093,1.319,1.3203,1.3236,1.3349,1.3356,1.3294,1.3299,1.3302,1.3304,0,0,0,0,0,0,0,1.2741,1.2761,1.295,1.2926,1.2934,1.2946,1.2964,1.3041,1.3119,1.3042,1.3046,1.3064,1.3193,1.3228,1.324,1.3358,1.3294,1.3301,1.3305,1.3308,1.3536,1.3538,0,0,0,0,0,0,1.2724,1.2753,1.2944,1.2954,1.2839,1.2952,1.2971,1.3015,1.3118,1.3132,1.3065,1.3066,1.3216,1.3231,1.3246,1.3335,1.3302,1.3309,1.3313,1.3535,1.3536,1.3538,0,0,0,0,0,0,1.2718,1.274,1.2938,1.2855,1.2881,1.2958,1.3006,1.3019,1.3053,1.3135,1.3149,1.3086,1.3215,1.3235,1.3316,1.3341,1.3312,1.3319,1.3533,1.3535,1.3537,1.3514,0,0,0,0,0,0,1.271,1.2738,1.2766,1.2855,1.2885,1.3006,1.3008,1.3023,1.3066,1.3069,1.3158,1.3172,1.3216,1.3305,1.3324,1.3351,1.3325,1.3531,1.3534,1.3537,1.3513,1.3515,1.3517,0,0,0,0,0,1.2701,1.2754,1.2767,1.279,1.2921,1.3007,1.3025,1.3073,1.3068,1.3096,1.3149,1.3169,1.3335,1.3313,1.3335,1.3365,1.353,1.3533,1.3536,1.3512,1.3515,1.3517,0,0,0,0,0,0,1.2667,1.2766,1.2782,1.2865,1.2927,1.3015,1.3053,1.3075,1.314,1.314,1.3198,1.3218,1.3295,1.3338,1.3311,1.3438,1.3433,1.3441,1.3407,1.341,1.3412,1.34,1.3332,0,0,0,0,0,1.2668,1.273,1.2814,1.2879,1.2909,1.2975,1.3015,1.3047,1.3113,1.314,1.3199,1.3263,1.333,1.3373,1.3439,1.3519,1.3539,1.3551,1.3553,1.3554,1.356,1.3605,1.3611,1.3549,1.3549,1.3549,0,0,1.2673,1.2735,1.2771,1.2873,1.2925,1.2987,1.2997,1.3063,1.311,1.3151,1.3231,1.3275,1.3351,1.3432,1.3471,1.3471,1.3581,1.3558,1.3558,1.3564,1.3609,1.3615,1.362,1.3551,1.3551,1.355,0,0,1.2714,1.2767,1.2827,1.2878,1.2956,1.3,1.3014,1.3098,1.3129,1.321,1.3242,1.3299,1.3412,1.3465,1.3506,1.3565,1.3586,1.3585,1.3596,1.3639,1.3643,1.3648,1.3668,1.3675,1.3591,1.359,1.359,0,1.271,1.2805,1.2855,1.2919,1.2962,1.3001,1.3062,1.3109,1.3205,1.3235,1.3233,1.3375,1.3429,1.3523,1.3536,1.3569,1.3587,1.3575,1.3639,1.3644,1.3649,1.3669,1.3676,1.359,1.359,1.359,1.359,0,1.2796,1.2861,1.29,1.299,1.3039,1.3101,1.316,1.3203,1.323,1.3273,1.3355,1.3421,1.35,1.3525,1.3553,1.3622,1.3619,1.3627,1.3623,1.3653,1.3673,1.3681,1.3589,1.3589,1.3589,1.3589,0,0,1.282,1.2936,1.295,1.2991,1.3079,1.313,1.3193,1.327,1.3306,1.337,1.3424,1.3519,1.3526,1.3573,1.3607,1.3645,1.3686,1.3649,1.3651,1.3653,1.3766,1.3759,1.3767,1.3701,1.3702,1.3704,1.3759,0,1.2872,1.2986,1.3032,1.3125,1.3185,1.3222,1.3277,1.3337,1.3379,1.3436,1.3483,1.3549,1.3554,1.3583,1.3622,1.3673,1.371,1.367,1.3752,1.3754,1.3731,1.3777,1.3771,1.382,1.3767,1.3768,1.3769,0,1.2947,1.3011,1.3109,1.3189,1.3216,1.3265,1.3338,1.3392,1.3461,1.3489,1.354,1.3572,1.3639,1.363,1.3724,1.3696,1.3732,1.3762,1.3765,1.3775,1.3763,1.3788,1.3837,1.3844,1.3782,1.3781,1.378,0,1.2954,1.3065,1.3137,1.3171,1.3267,1.33,1.3341,1.3408,1.3451,1.3515,1.3543,1.3615,1.3654,1.3708,1.3758,1.3747,1.3846,1.3842,1.3871,1.387,1.3891,1.3889,1.3946,1.3914,1.3914,1.3914,1.3914,0,1.3006,1.3065,1.3142,1.3186,1.3253,1.3305,1.3369,1.3413,1.3472,1.3526,1.3563,1.3612,1.3675,1.3733,1.3772,1.3843,1.3861,1.3885,1.3895,1.3882,1.3878,1.3906,1.3904,1.3916,1.3916,1.3915,1.3915,0,1.3025,1.3079,1.3161,1.3244,1.3266,1.3311,1.3382,1.3427,1.347,1.3537,1.3556,1.3624,1.3694,1.3749,1.384,1.3866,1.3941,1.3952,1.3917,1.3922,1.3948,1.3945,1.4025,1.4038,1.3997,1.3998,1.3998,0,1.3055,1.3101,1.3188,1.3227,1.3267,1.3329,1.3372,1.3425,1.3469,1.3549,1.3584,1.3656,1.3717,1.3826,1.3884,1.3953,1.3966,1.3989,1.3977,1.3962,1.3966,1.3962,1.3967,1.3991,1.3991,1.3991,1.3991,0,1.3102,1.3126,1.3187,1.3257,1.3308,1.3366,1.3425,1.3454,1.3517,1.3565,1.3636,1.3682,1.3774,1.3845,1.3921,1.3963,1.3988,1.3994,1.4005,1.3992,1.397,1.3981,1.3921,1.3992,1.3992,1.3992,1.3992,1.3992,1.3128,1.3169,1.3237,1.3303,1.3353,1.3407,1.3452,1.3501,1.3561,1.3639,1.3667,1.374,1.3806,1.391,1.3953,1.401,1.4012,1.4027,1.4031,1.4034,1.4032,1.396,1.4024,1.4025,1.4025,1.4025,1.4025,0,1.3176,1.3221,1.3281,1.3362,1.3414,1.3431,1.3497,1.3539,1.3603,1.3663,1.3721,1.3802,1.387,1.3933,1.4004,1.4038,1.4051,1.4055,1.4053,1.4063,1.4027,1.4011,1.4044,1.4044,1.4044,1.4044,1.4044,1.4044,1.3207,1.3279,1.331,1.3406,1.3451,1.3523,1.3558,1.3608,1.3656,1.3744,1.3801,1.3841,1.3902,1.3977,1.4041,1.4058,1.4082,1.4083,1.4102,1.4068,1.4065,1.4063,1.4048,1.4088,1.4088,1.4133,1.4134,1.4134]},{"header":{"parameterUnit":"m.s-1","parameterCategory":1,"la1":30.2991,"la2":30.254,"lo1":-89.0895,"lo2":-89.0444,"dy":0.0017,"dx":0.0017,"nx":28,"ny":28,"refTime":"2025-07-26T03:00:00:Z","depth":0,"parameterNumber":3,"parameterNumberName":"V-component_of_WINDS"},"data":[0,0,0,0,0,0,0,0,0,0,0,0,0,0,0,0,0,0,0,0,0,0,0,0,0,0,0,0,0,0,0,0,0,0,0,0,0,0,0,0,0,0,0,0,0,0,0,0,0,0,0,0,0,0,0,0,0,0,3.1354,3.1354,0,3.1313,3.1313,3.1312,3.1319,3.132,3.1321,3.1321,3.1274,3.1272,3.127,0,0,0,0,0,0,0,0,0,0,0,0,0,3.1433,3.1431,3.1354,3.1354,3.1353,3.1313,3.1313,3.1312,3.1319,3.132,3.1321,3.1322,3.1275,3.1272,3.127,0,0,0,0,0,0,0,0,0,0,0,0,0,3.1396,3.1431,3.1354,3.1352,3.1351,3.1313,3.1313,3.1312,3.1319,3.132,3.1321,3.1322,3.1275,3.1273,3.127,3.123,0,0,3.1261,3.1259,0,0,0,0,0,0,0,0,3.1398,3.1393,3.1353,3.1352,3.1351,3.1323,3.1323,3.1284,3.1319,3.1331,3.1321,3.1323,3.1289,3.1285,3.1275,3.1227,3.1225,3.126,3.1259,3.1257,3.1257,0,0,0,0,0,0,0,3.14,3.1395,3.1338,3.1352,3.1351,3.1351,3.1347,3.1316,3.1304,3.133,3.1331,3.1326,3.1289,3.1277,3.1274,3.1225,3.1261,3.1258,3.1256,3.1255,3.1141,3.114,0,0,0,0,0,0,3.1404,3.1397,3.1339,3.1337,3.1378,3.1349,3.1344,3.1331,3.1305,3.1302,3.1325,3.1326,3.1282,3.1277,3.1272,3.1223,3.1257,3.1255,3.1253,3.1143,3.1141,3.114,0,0,0,0,0,0,3.1406,3.1399,3.1341,3.1367,3.1359,3.1346,3.1331,3.1329,3.1318,3.1301,3.1298,3.1316,3.1283,3.1276,3.124,3.1221,3.1253,3.1251,3.1144,3.1142,3.114,3.1124,0,0,0,0,0,0,3.1408,3.14,3.1386,3.1367,3.1358,3.1311,3.133,3.1328,3.1314,3.1315,3.1292,3.1289,3.1283,3.1245,3.1237,3.1218,3.1248,3.1146,3.1143,3.1141,3.1127,3.1122,3.1119,0,0,0,0,0,3.1411,3.1382,3.1385,3.1378,3.1341,3.131,3.1305,3.1301,3.1312,3.1297,3.1286,3.129,3.1225,3.1241,3.1233,3.1212,3.1147,3.1144,3.1141,3.1128,3.1123,3.1119,0,0,0,0,0,0,3.1397,3.1379,3.1383,3.1347,3.133,3.1312,3.1293,3.1295,3.1274,3.1276,3.1269,3.1264,3.1227,3.1216,3.1235,3.1171,3.1187,3.1183,3.118,3.1175,3.1171,3.1174,3.1246,0,0,0,0,0,3.1391,3.1369,3.1354,3.1324,3.1315,3.1305,3.1292,3.129,3.1272,3.1265,3.1251,3.1231,3.1207,3.119,3.1167,3.1125,3.1119,3.1107,3.1103,3.11,3.1095,3.1071,3.1065,3.113,3.113,3.113,0,0,3.1375,3.1363,3.135,3.1321,3.1308,3.1284,3.1299,3.1274,3.1256,3.126,3.1226,3.1215,3.1193,3.1154,3.1136,3.1143,3.1076,3.1096,3.1094,3.1091,3.1068,3.1062,3.1056,3.1128,3.1129,3.1129,0,0,3.1336,3.1325,3.1298,3.1285,3.1266,3.1259,3.1253,3.1234,3.1228,3.1194,3.1196,3.1173,3.1131,3.1115,3.1102,3.1056,3.1058,3.1048,3.1026,3.1003,3.0998,3.0994,3.0976,3.097,3.1044,3.1044,3.1044,0,3.1319,3.1285,3.1283,3.1258,3.1244,3.1249,3.1221,3.1208,3.1181,3.117,3.118,3.1127,3.1112,3.1069,3.1058,3.1047,3.1038,3.105,3.1,3.0995,3.099,3.0974,3.0967,3.1043,3.1043,3.1043,3.1043,0,3.1265,3.1241,3.1222,3.1198,3.1182,3.1155,3.1147,3.1131,3.1131,3.1123,3.1087,3.107,3.1043,3.1033,3.1031,3.0989,3.0994,3.1001,3.1017,3.0983,3.0967,3.0961,3.1041,3.1042,3.1042,3.1042,0,0,3.1214,3.1191,3.1183,3.1172,3.1151,3.1132,3.1105,3.108,3.1066,3.1047,3.1023,3.0987,3.0994,3.0978,3.0975,3.0955,3.0918,3.0964,3.0964,3.0955,3.0869,3.0863,3.0856,3.092,3.0919,3.0918,3.0871,0,3.1172,3.1126,3.1124,3.1081,3.1058,3.1063,3.1039,3.1022,3.1014,3.0992,3.0982,3.0957,3.0968,3.0959,3.0939,3.0927,3.0901,3.093,3.0895,3.0894,3.09,3.0848,3.0842,3.0798,3.0865,3.0864,3.0863,0,3.1117,3.1098,3.1054,3.1036,3.1026,3.1005,3.0982,3.0961,3.0942,3.0937,3.092,3.092,3.089,3.0907,3.0865,3.0885,3.0871,3.0862,3.0861,3.0856,3.0876,3.0841,3.0784,3.0778,3.0853,3.0854,3.0855,0,3.1083,3.1047,3.1016,3.1006,3.0985,3.097,3.0959,3.0942,3.0927,3.0906,3.0896,3.0871,3.0857,3.0836,3.0828,3.0842,3.0786,3.0803,3.0779,3.0779,3.0767,3.0767,3.0706,3.0759,3.0759,3.0759,3.0759,0,3.1036,3.1008,3.1001,3.0981,3.095,3.0946,3.0915,3.0905,3.0889,3.0867,3.0868,3.0847,3.0838,3.0814,3.0808,3.0773,3.0767,3.0761,3.0759,3.076,3.0761,3.075,3.0752,3.0757,3.0758,3.0758,3.0758,0,3.0993,3.0987,3.0953,3.0936,3.0931,3.0909,3.0893,3.0873,3.0866,3.0837,3.083,3.0817,3.0789,3.078,3.0746,3.0741,3.07,3.0702,3.0707,3.0707,3.0684,3.0686,3.0612,3.0601,3.0662,3.0662,3.0661,0,3.0963,3.0942,3.0923,3.0909,3.0899,3.0876,3.0861,3.0857,3.0841,3.0817,3.08,3.0773,3.0751,3.0706,3.0692,3.0666,3.0666,3.0642,3.0662,3.0663,3.0664,3.0666,3.0663,3.0638,3.0637,3.0637,3.0636,0,3.0909,3.0907,3.0887,3.0865,3.0848,3.083,3.0813,3.0801,3.0793,3.0775,3.0748,3.0731,3.0697,3.0669,3.0642,3.063,3.0631,3.0631,3.0624,3.0624,3.0628,3.0624,3.0696,3.0632,3.0632,3.0633,3.0633,3.0633,3.0871,3.0852,3.0836,3.0813,3.08,3.0784,3.0765,3.0755,3.0733,3.0706,3.0704,3.0674,3.0655,3.0619,3.0605,3.0581,3.0587,3.0577,3.0574,3.0572,3.057,3.0633,3.0576,3.0576,3.0576,3.0576,3.0576,0,3.0817,3.0807,3.0786,3.0762,3.0744,3.0749,3.073,3.0714,3.0688,3.067,3.0649,3.0617,3.0591,3.0575,3.0548,3.0531,3.0531,3.0524,3.0525,3.0521,3.0566,3.0574,3.0525,3.0525,3.0525,3.0525,3.0525,3.0525,3.0786,3.0755,3.0751,3.0713,3.0703,3.0675,3.0663,3.0648,3.0634,3.0599,3.0577,3.0568,3.0551,3.0523,3.0498,3.0494,3.0483,3.0475,3.0472,3.0513,3.0518,3.0523,3.0531,3.0473,3.0473,3.0429,3.0429,3.0429]}]]